TimeEST,TemperatureF,Dew PointF,Humidity,Sea Level PressureIn,VisibilityMPH,Wind Direction,Wind SpeedMPH,Gust SpeedMPH,PrecipitationIn,Events,Conditions,WindDirDegrees,DateUTC
12:53 AM,63.0,61.0,93,30.23,10.0,East,5.8,-,N/A,,Clear,80,2012-12-03 05:53:00
1:53 AM,61.0,60.1,97,30.22,10.0,Calm,Calm,-,N/A,,Clear,0,2012-12-03 06:53:00
2:53 AM,63.0,61.0,93,30.22,10.0,Calm,Calm,-,N/A,,Overcast,0,2012-12-03 07:53:00
3:53 AM,63.0,61.0,93,30.22,10.0,NNE,3.5,-,N/A,,Overcast,30,2012-12-03 08:53:00
4:53 AM,62.1,61.0,96,30.22,10.0,NE,3.5,-,N/A,,Mostly Cloudy,40,2012-12-03 09:53:00
5:53 AM,61.0,59.0,93,30.23,9.0,ENE,5.8,-,N/A,,Mostly Cloudy,60,2012-12-03 10:53:00
6:53 AM,61.0,59.0,93,30.25,10.0,ENE,4.6,-,N/A,,Overcast,60,2012-12-03 11:53:00
7:53 AM,64.9,63.0,93,30.27,10.0,Calm,Calm,-,0.01,,Scattered Clouds,0,2012-12-03 12:53:00
8:53 AM,71.1,64.9,81,30.28,10.0,East,8.1,-,N/A,,Partly Cloudy,80,2012-12-03 13:53:00
11:53 AM,80.1,57.9,47,30.26,-9999.0,East,9.2,-,N/A,,Partly Cloudy,80,2012-12-03 16:53:00
12:53 PM,-9999,-9999,N/A,30.23,10.0,East,13.8,-,N/A,,Scattered Clouds,90,2012-12-03 17:53:00
2:53 PM,80.1,54.0,40,30.19,10.0,ENE,12.7,18.4,N/A,,Mostly Cloudy,70,2012-12-03 19:53:00
3:53 PM,78.1,53.1,42,30.19,10.0,East,10.4,-,N/A,,Scattered Clouds,80,2012-12-03 20:53:00
4:53 PM,78.1,54.0,43,30.19,10.0,East,5.8,-,N/A,,Clear,80,2012-12-03 21:53:00
5:53 PM,68.0,54.0,61,30.21,10.0,ENE,5.8,-,N/A,,Clear,70,2012-12-03 22:53:00
6:53 PM,66.0,54.0,65,30.23,10.0,ENE,6.9,-,N/A,,Clear,70,2012-12-03 23:53:00
7:53 PM,63.0,54.0,72,30.25,10.0,ENE,5.8,-,N/A,,Clear,70,2012-12-04 00:53:00
8:53 PM,60.1,54.0,80,30.26,10.0,ENE,6.9,-,N/A,,Clear,70,2012-12-04 01:53:00
9:53 PM,59.0,54.0,83,30.26,10.0,East,5.8,-,N/A,,Partly Cloudy,80,2012-12-04 02:53:00
10:53 PM,57.0,53.1,87,30.26,10.0,ENE,5.8,-,N/A,,Clear,60,2012-12-04 03:53:00
11:53 PM,57.0,54.0,89,30.26,10.0,NE,3.5,-,N/A,,Partly Cloudy,50,2012-12-04 04:53:00